Regional Weather Roundup
Issued by NWS

Home | Current Version | Previous Version | Text Only | Print | Product List | Glossary Off
Versions: 1 2 3 4 5 6 7 8 9 10 11 12 13 14 15 16 17 18 19 20 21 22 23 24 25 26 27 28 29 30 31 32 33 34 35 36 37 38 39 40 41 42 43 44 45 46 47 48 49 50

027
ASUS43 KMKX 190720
RWRWI

WISCONSIN REGIONAL WEATHER ROUNDUP
NATIONAL WEATHER SERVICE MILWAUKEE/SULLIVAN WI
100 AM CST FRI JAN 19 2018

NOTE: "FAIR" INDICATES FEW OR NO CLOUDS BELOW 12,000 FEET WITH NO
SIGNIFICANT WEATHER AND/OR OBSTRUCTIONS TO VISIBILITY.

WIZ001-002-006>008-014>016-023>028-190800-
NORTHWEST WISCONSIN

CITY           SKY/WX    TMP DP  RH WIND       PRES   REMARKS
SUPERIOR ARPT  FAIR      25  24  93 SW6       29.66F WCI  18
ASHLAND        FAIR      28  22  78 S6        29.67F WCI  22
HAYWARD        FAIR      21  18  88 SW5       29.69F WCI  15
SIREN          FAIR      24  23  95 S3        29.70S
CUMBERLAND     FAIR      23  21  93 S5        29.70S WCI  17
RICE LAKE      FAIR      24  23  96 SE3       29.73F
CHETEK         NOT AVBL
LADYSMITH      FAIR      26  23  89 S7        29.73F WCI  18
EAU CLAIRE     FAIR      24  21  88 SW6       29.75F WCI  17
MENOMONIE      FAIR      24  21  89 SE5       29.74F WCI  18
NEW RICHMOND   FAIR      27  25  95 S7        29.71F WCI  19
OSCEOLA        FAIR      28  27  98 S6        29.75F WCI  21
$$

WIZ003>005-009-010-017-018-190800-
NORTH CENTRAL WISCONSIN

CITY           SKY/WX    TMP DP  RH WIND       PRES   REMARKS
MANITOWISH WTR FAIR      22  22 100 S3        29.67F
ARBOR VITAE    FAIR      25  22  89 SW3       29.68F
WOODRUFF       FAIR      25  22  89 SW3       29.68F
RHINELANDER    FAIR      26  22  84 SW8       29.70F WCI  18
EAGLE RIVER    FAIR      20  20  99 SW5       29.67F WCI  14
LAND O LAKES   FAIR      20  18  93 CALM      29.69S
PHILLIPS       FAIR      24  23  96 S5        29.69F WCI  18
TOMAHAWK       FAIR      22  19  91 CALM      29.72S
MEDFORD        FAIR      23  19  85 SW7       29.72F WCI  15
MERRILL        FAIR      19  18  96 CALM      29.73F
$$

WIZ029-030-035-036-043>047-190800-
CENTRAL WISCONSIN

CITY           SKY/WX    TMP DP  RH WIND       PRES   REMARKS
WAUSAU         FAIR      25  20  81 CALM      29.73F
MOSINEE        FAIR      23  19  86 SW7       29.76F WCI  15
MARSHFIELD     FAIR      25  19  78 SW7       29.74F WCI  17
STEVENS POINT  FAIR      23  18  81 SW5       29.78S WCI  17
WAUPACA        FAIR      26  19  74 CALM      29.80S
WAUTOMA        FAIR      22  17  81 CALM      29.81F
WISC RAPIDS    FAIR      24  16  71 SW8       29.78F WCI  15
CAMP DOUGLAS   FAIR      28  20  72 SW6       29.79F WCI  21
$$

WIZ011>013-019>022-031-037>040-048>050-190800-
NORTHEAST WISCONSIN

CITY           SKY/WX    TMP DP  RH WIND       PRES   REMARKS
ANTIGO         FAIR      22  19  89 W5        29.73F WCI  15
SHAWANO        FAIR      26  20  77 CALM      29.77S
OCONTO         FAIR      25  19  76 SW5       29.79S WCI  19
STURGEON BAY   FAIR      27  20  75 SW13      29.79S WCI  16
GREEN BAY      FAIR      22  16  78 S5        29.80F WCI  16
MANITOWOC      FAIR      29  20  69 SW8       29.81F WCI  21
APPLETON       FAIR      23  16  74 SW8       29.78F WCI  14
CLINTONVILLE   FAIR      21  18  86 SW3       29.79R
OSHKOSH        FAIR      22  16  78 S8        29.81F WCI  12
$$

WIZ032>034-041-042-053>061-190800-
SOUTHWEST WISCONSIN

CITY           SKY/WX    TMP DP  RH WIND       PRES   REMARKS
LA CROSSE      FAIR      28  20  71 S9        29.81F WCI  19
SPARTA         FAIR      28  22  76 SW5       29.81F WCI  23
VIROQUA        FAIR      26  22  84 SW8       29.80F WCI  17
BOSCOBEL       FAIR      23  17  78 CALM      29.86F
PRAIRIE DU CHI FAIR      30  19  64 S3        29.86F
PLATTEVILLE    FAIR      22  19  90 SW8       29.87S WCI  12
$$

WIZ056-057-062-063-064-067-068-190800-
SOUTH CENTRAL WISCONSIN

CITY           SKY/WX    TMP DP  RH WIND       PRES   REMARKS
REEDSBURG      FAIR      28  19  71 SW9       29.83S WCI  19
BARABOO/DELLS  FAIR      27  19  71 SW6       29.82S WCI  20
LONE ROCK      FAIR      18  14  84 CALM      29.86F
MINERAL POINT  FAIR      28  23  80 SW7       29.85S WCI  21
MADISON        FAIR      27  19  72 SW6       29.85F WCI  20
MIDDLETON      FAIR      28  21  73 SW12G17   29.85S WCI  18
WATERTOWN      NOT AVBL
MONROE         FAIR      28  21  74 SW21      29.85F WCI  15
JANESVILLE     FAIR      28  21  74 SW10      29.88F WCI  19
$$

WIZ051-052-058>065-066-070>072-190800-
SOUTHEAST WISCONSIN

CITY           SKY/WX    TMP DP  RH WIND       PRES   REMARKS
MILWAUKEE      FAIR      31  20  63 SW13G20   29.86S WCI  21
WAUKESHA       FAIR      28  19  69 SW13G20   29.86S WCI  18
MILWAUKEE/TIMM FAIR      30  19  64 SW15G23   29.85F WCI  19
RACINE         FAIR      30  20  66 SW16G24   29.87F WCI  19
BURLINGTON     FAIR      28  19  67 SW10      29.88F WCI  19
KENOSHA        FAIR      30  19  63 SW17      29.87F WCI  18
FOND DU LAC    FAIR      25  16  68 SW7       29.83R WCI  17
SHEBOYGAN      FAIR      28  20  71 W10       29.82R WCI  19
WEST BEND      FAIR      28  19  69 W10       29.83R WCI  19
JUNEAU         FAIR      20  16  84 S7        29.85S WCI  11
$$

LSZ147-162-190800-
LAKE SUPERIOR

STATION/POSITION TIME  TEMP    WIND        PRES    WAVE
                       AIR SEA DIR/SP/G            HT/PER
                 (UTC) (F)     (DEG/KT/KT) (MB)    (FT/S)
DEVILS ISLAND    0700   31     200/  6/  8 1004.9F
SAXON HARBOR     0640   27     170/  5/  7 1005.1F
$$

LMZ867-665-643>646-190800-
LAKE MICHIGAN

STATION/POSITION TIME  TEMP    WIND        PRES    WAVE
                       AIR SEA DIR/SP/G            HT/PER
                 (UTC) (F)     (DEG/KT/KT) (MB)    (FT/S)
NORTHPORT PIER   0701   27     240/ 11/ 25 1007.8
KEWAUNEE LAKESHO 0654   28     270/  7/ 12 1008.3F
SHEBOYGAN LAKESH 0700   30     250/ 10/ 13 1010.7R
PORT WASHINGTON  0630   29     260/ 10/ 16 1011.2S
MILWAUKEE LAKESH 0700   31     240/ 12/ 14   N/A
KENOSHA   LAKESH 0700   31     240/ 15/ 22 1011.9
$$

TC  - TEMPERATURE IN CELSIUS
VSB - VISIBILITY IN STATUTE MILES
WCI - WIND CHILL INDEX
HX  - HEAT INDEX





USA.gov is the U.S. government's official web portal to all federal, state and local government web resources and services.